Regional Weather Roundup
Issued by NWS Binghamton, NY

Home | Current Version | Previous Version | Text Only | Print | Product List | Glossary On
Versions: 1 2 3 4 5 6 7 8 9 10 11 12 13 14 15 16 17 18 19 20 21 22 23 24 25 26 27
000
ASUS41 KBGM 280310
RWRBGM

REGIONAL WEATHER ROUNDUP
NATIONAL WEATHER SERVICE BINGHAMTON NY
1100 PM EDT SUN MAY 27 2018

Note: "fair" indicates few or no clouds below 12,000 feet with no
significant weather and/or obstructions to visibility.

* = Station(s) that does not report precipitation, such as rain,
snow, etc, also no thunder or fog.

NYZ009-015>018-022>025-036-037-044>046-055>057-062-280400
...Central New York...

CITY           SKY/WX    TMP DP  RH WIND       PRES   REMARKS
Binghamton     CLOUDY    58  57  97 SE10      30.04S
Cortland       CLOUDY    61  59  94 SE5       30.02F
Dansville      FAIR      71  64  78 E3        29.96S
Elmira         CLOUDY    68  65  90 CALM      30.00S
Ithaca         CLOUDY    64  61  90 SE12      30.01F
Monticello     NOT AVBL
Oneonta        CLOUDY    54 N/A N/A CALM      30.06F
Penn Yan       FAIR      65  62  90 S5        29.98S
Rome           CLOUDY    57  55  93 SE13      30.07S
Sidney         CLOUDY    57  57 100 CALM      30.06S
Syracuse       CLOUDY    60  59  96 E12       29.99S
$$

PAZ038>040-043-044-047-048-072-280400
...Northeast Pennsylvania...

CITY           SKY/WX    TMP DP  RH WIND       PRES   REMARKS
Hazleton       CLOUDY    59  59 100 E3        30.11R FOG
Scranton       CLOUDY    60  57  89 VRB5      30.08R
$$
&&
KEY
WCI = Wind Chill Index
VSB = Visibility
HX  = Heat Index
$$




USA.gov is the U.S. government's official web portal to all federal, state and local government web resources and services.